GW1454 Weather Reports


Display with metric or nautical units.
time (UTC)temp
F
wind
direction
speed
MPH
gust
MPH
rain 1hr
in
rain 24hr
in
rain mn
in
humidity
%
barometer
mb
20260509213547 73 74 2.0 7.0 0.00 0.00 0.00 67 1010.2
20260509213057 73 21 3.0 10.0 0.00 0.00 0.00 67 1010.2
20260509212544 73 0 3.0 10.0 0.00 0.00 0.00 66 1010.2
20260509212044 73 42 2.0 8.0 0.00 0.00 0.00 68 1010.3
20260509211557 72 71 2.0 9.0 0.00 0.00 0.00 67 1010.4
20260509211049 73 103 3.0 9.0 0.00 0.00 0.00 66 1010.4
20260509210547 72 89 2.0 8.0 0.00 0.00 0.00 66 1010.2
20260509210059 72 49 2.0 9.0 0.00 0.00 0.00 69 1010.1
20260509205548 72 113 3.0 9.0 0.00 0.00 0.00 68 1010.1
20260509205044 72 71 1.0 6.0 0.00 0.00 0.00 69 1009.9
20260509204607 71 0 0.0 10.0 0.00 0.00 0.00 69 1009.8
20260509204046 71 85 2.0 10.0 0.00 0.00 0.00 67 1010.0
20260509203547 72 326 2.0 7.0 0.00 0.00 0.00 68 1010.1
20260509203105 72 316 1.0 7.0 0.00 0.00 0.00 68 1010.3
20260509202548 72 140 2.0 7.0 0.00 0.00 0.00 68 1010.3
20260509202048 72 11 1.0 9.0 0.00 0.00 0.00 68 1010.3
20260509201553 72 97 1.0 9.0 0.00 0.00 0.00 68 1010.2
20260509201044 72 144 3.0 9.0 0.00 0.00 0.00 67 1010.2
20260509200547 72 317 3.0 9.0 0.00 0.00 0.00 66 1010.3
20260509200057 72 39 2.0 9.0 0.00 0.00 0.00 67 1010.2
20260509195549 72 104 3.0 9.0 0.00 0.00 0.00 67 1010.4
20260509195049 72 298 4.0 11.0 0.00 0.00 0.00 67 1010.4
20260509194606 72 271 5.0 11.0 0.00 0.00 0.00 68 1010.4
20260509194048 72 50 4.0 9.0 0.00 0.00 0.00 69 1010.4
20260509193546 72 54 2.0 8.0 0.00 0.00 0.00 68 1010.6
20260509193109 71 100 3.0 10.0 0.00 0.00 0.00 71 1010.7
20260509192546 71 13 3.0 10.0 0.00 0.00 0.00 71 1010.8
20260509192044 70 73 1.0 9.0 0.00 0.00 0.00 73 1011.0
20260509191557 69 123 2.0 6.0 0.00 0.00 0.00 73 1011.0
20260509191045 69 108 2.0 6.0 0.00 0.00 0.00 73 1011.0
20260509190545 69 22 2.0 6.0 0.00 0.00 0.00 72 1011.1
20260509190056 69 29 1.0 8.0 0.00 0.00 0.00 72 1011.0
20260509185547 69 56 3.0 9.0 0.00 0.00 0.00 70 1011.0
20260509185045 70 76 3.0 9.0 0.00 0.00 0.00 70 1011.1
20260509184556 70 326 3.0 10.0 0.00 0.00 0.00 68 1011.0
20260509184047 70 36 2.0 12.0 0.00 0.00 0.00 70 1011.0
20260509183547 70 49 4.0 12.0 0.00 0.00 0.00 68 1011.0
20260509183051 70 90 5.0 12.0 0.00 0.00 0.00 68 1011.0
20260509182548 70 109 3.0 9.0 0.00 0.00 0.00 69 1011.1
20260509182044 70 101 3.0 9.0 0.00 0.00 0.00 68 1011.2
20260509181609 70 123 1.0 10.0 0.00 0.00 0.00 71 1011.4
20260509181047 70 144 3.0 10.0 0.00 0.00 0.00 68 1011.3
20260509180547 70 68 2.0 9.0 0.00 0.00 0.00 70 1011.4
20260509180117 70 98 3.0 8.0 0.00 0.00 0.00 70 1011.5
20260509175547 70 97 0.0 7.0 0.00 0.00 0.00 71 1011.6
20260509175050 69 0 2.0 10.0 0.00 0.00 0.00 71 1011.4
20260509174556 68 105 3.0 10.0 0.00 0.00 0.00 71 1011.5
20260509174048 68 63 4.0 10.0 0.00 0.00 0.00 70 1011.5
20260509173544 69 117 3.0 7.0 0.00 0.00 0.00 71 1011.4
20260509173110 69 98 3.0 7.0 0.00 0.00 0.00 69 1011.4
20260509172546 69 101 1.0 11.0 0.00 0.00 0.00 70 1011.5
20260509172045 69 80 4.0 13.0 0.00 0.00 0.00 69 1011.5
20260509171555 69 75 4.0 13.0 0.00 0.00 0.00 69 1011.5
20260509171046 70 309 4.0 9.0 0.00 0.00 0.00 69 1011.6
20260509170547 70 12 2.0 11.0 0.00 0.00 0.00 68 1011.6
20260509170057 70 87 4.0 14.0 0.00 0.00 0.00 67 1011.6
20260509165547 70 201 3.0 14.0 0.00 0.00 0.00 69 1011.7
20260509165047 70 117 4.0 12.0 0.00 0.00 0.00 69 1011.8
20260509164555 70 120 4.0 10.0 0.00 0.00 0.00 68 1011.8
20260509164047 69 74 4.0 10.0 0.00 0.00 0.00 70 1011.9
20260509163549 69 57 2.0 10.0 0.00 0.00 0.00 71 1012.1
20260509163059 68 40 3.0 10.0 0.00 0.00 0.00 71 1012.1
20260509162548 68 113 2.0 5.0 0.00 0.00 0.00 73 1012.3
20260509162047 68 142 1.0 8.0 0.00 0.00 0.00 74 1012.4
20260509161600 68 93 2.0 10.0 0.00 0.00 0.00 74 1012.5
20260509161045 68 88 3.0 10.0 0.00 0.00 0.00 73 1012.4
20260509160548 68 306 3.0 10.0 0.00 0.00 0.00 74 1012.5
20260509160057 67 82 5.0 10.0 0.00 0.00 0.00 74 1012.5
20260509155547 68 103 2.0 8.0 0.00 0.00 0.00 76 1012.6
20260509155045 67 128 2.0 10.0 0.00 0.00 0.00 77 1012.6
20260509154604 66 325 2.0 10.0 0.00 0.00 0.00 79 1012.6
20260509154046 66 98 2.0 10.0 0.00 0.00 0.00 78 1012.4
20260509153550 65 346 5.0 10.0 0.00 0.00 0.00 79 1012.4
20260509153106 66 97 1.0 4.0 0.00 0.00 0.00 79 1012.4
20260509152548 66 24 1.0 3.0 0.00 0.00 0.00 80 1012.5
20260509152048 65 79 1.0 4.0 0.00 0.00 0.00 81 1012.5
20260509151601 65 71 1.0 4.0 0.00 0.00 0.00 80 1012.6
20260509151045 65 251 0.0 6.0 0.00 0.00 0.00 80 1012.5
20260509150550 64 96 3.0 6.0 0.00 0.00 0.00 80 1012.5
20260509150051 64 103 1.0 5.0 0.00 0.00 0.00 82 1012.6
20260509145547 63 9 0.0 5.0 0.00 0.00 0.00 82 1012.5
20260509145046 63 109 1.0 6.0 0.00 0.00 0.00 83 1012.6
20260509144557 63 88 2.0 6.0 0.00 0.00 0.00 83 1012.5
20260509144044 62 94 0.0 4.0 0.00 0.00 0.00 83 1012.7
20260509143545 62 105 1.0 5.0 0.00 0.00 0.00 83 1012.5
20260509143107 62 90 1.0 5.0 0.00 0.00 0.00 83 1012.5
20260509142545 62 46 2.0 4.0 0.00 0.00 0.00 83 1012.8
20260509142044 62 13 2.0 6.0 0.00 0.00 0.00 82 1012.7
20260509141553 61 165 1.0 7.0 0.00 0.00 0.00 83 1012.8
20260509141048 61 331 1.0 7.0 0.00 0.00 0.00 82 1012.8
20260509140546 62 109 0.0 4.0 0.00 0.00 0.00 82 1012.8
20260509140103 62 253 0.0 5.0 0.00 0.00 0.00 82 1012.9
20260509135547 61 291 1.0 7.0 0.00 0.00 0.00 83 1013.1
20260509135048 61 103 2.0 7.0 0.00 0.00 0.00 83 1013.1
20260509134600 61 111 2.0 5.0 0.00 0.00 0.00 82 1013.0
20260509134047 60 0 1.0 4.0 0.00 0.00 0.00 83 1013.1
20260509133546 60 0 1.0 5.0 0.00 0.00 0.00 83 1013.3
20260509133110 59 0 0.0 6.0 0.00 0.00 0.00 84 1013.5
20260509132547 59 0 1.0 6.0 0.00 0.00 0.00 83 1013.7
20260509132045 59 105 1.0 3.0 0.00 0.00 0.00 83 1013.9
20260509131559 59 91 1.0 6.0 0.00 0.00 0.00 83 1014.0
20260509131044 59 96 2.0 6.0 0.00 0.00 0.00 84 1013.9
20260509130547 58 104 2.0 5.0 0.00 0.00 0.00 84 1014.0
20260509130115 58 0 0.0 5.0 0.00 0.00 0.00 84 1014.0
20260509125547 57 71 1.0 6.0 0.00 0.00 0.00 84 1014.0
20260509125046 57 65 0.0 6.0 0.00 0.00 0.00 84 1013.9
20260509124559 57 68 2.0 6.0 0.00 0.00 0.00 85 1014.0
20260509124045 56 107 2.0 4.0 0.00 0.00 0.00 84 1014.0
20260509123545 56 94 2.0 4.0 0.00 0.00 0.00 84 1013.9
20260509123055 56 0 1.0 4.0 0.00 0.00 0.00 85 1013.8
20260509122548 56 0 1.0 4.0 0.00 0.00 0.00 84 1013.7
20260509122046 55 55 1.0 2.0 0.00 0.00 0.00 86 1013.7
20260509121555 55 92 0.0 2.0 0.00 0.00 0.00 86 1013.7
20260509121049 54 0 0.0 5.0 0.00 0.00 0.00 87 1013.5
20260509120548 54 327 1.0 5.0 0.00 0.00 0.00 87 1013.7
20260509120100 54 88 0.0 1.0 0.00 0.00 0.00 87 1013.7
20260509115547 54 67 0.0 1.0 0.00 0.00 0.00 88 1013.7
20260509115048 54 0 0.0 0.0 0.00 0.00 0.00 89 1013.6
20260509114558 53 0 0.0 0.0 0.00 0.00 0.00 90 1013.5
20260509114046 52 0 0.0 0.0 0.00 0.00 0.00 91 1013.4
20260509113545 52 0 0.0 0.0 0.00 0.00 0.00 93 1013.3
20260509113054 50 0 0.0 0.0 0.00 0.00 0.00 93 1013.4
20260509112546 50 0 0.0 0.0 0.00 0.00 0.00 92 1013.5
20260509112047 49 0 0.0 0.0 0.00 0.00 0.00 93 1013.3
20260509111554 49 0 0.0 0.0 0.00 0.00 0.00 93 1013.3
20260509111045 48 0 0.0 0.0 0.00 0.00 0.00 93 1013.4
20260509110547 48 0 0.0 0.0 0.00 0.00 0.00 93 1013.4
20260509110053 48 0 0.0 0.0 0.00 0.00 0.00 93 1013.4
20260509105546 47 0 0.0 0.0 0.00 0.00 0.00 93 1013.4
20260509105045 47 0 0.0 0.0 0.00 0.00 0.00 93 1013.3
20260509104608 47 0 0.0 0.0 0.00 0.00 0.00 93 1013.1
20260509104046 47 0 0.0 0.0 0.00 0.00 0.00 92 1013.1
20260509103546 47 0 0.0 0.0 0.00 0.00 0.00 92 1013.1
20260509103058 47 0 0.0 0.0 0.00 0.00 0.00 92 1012.9
20260509102548 47 0 0.0 0.0 0.00 0.00 0.00 92 1012.8
20260509102045 46 0 0.0 0.0 0.00 0.00 0.00 92 1012.6
20260509101555 47 0 0.0 0.0 0.00 0.00 0.00 92 1012.6
20260509101046 46 0 0.0 0.0 0.00 0.00 0.00 91 1012.6
20260509100546 46 0 0.0 0.0 0.00 0.00 0.00 91 1012.6
20260509100050 47 0 0.0 0.0 0.00 0.00 0.00 91 1012.5
20260509095546 47 0 0.0 0.0 0.00 0.01 0.00 91 1012.5
20260509095047 47 0 0.0 0.0 0.00 0.01 0.00 91 1012.4
20260509094551 47 0 0.0 0.0 0.00 0.01 0.00 90 1012.5
20260509094045 47 0 0.0 0.0 0.00 0.01 0.00 90 1012.4
20260509093547 47 0 0.0 0.0 0.00 0.01 0.00 90 1012.4
20260509093051 47 0 0.0 0.0 0.00 0.01 0.00 90 1012.7
20260509092546 47 0 0.0 0.0 0.00 0.01 0.00 90 1012.7
20260509092048 47 0 0.0 0.0 0.00 0.01 0.00 90 1012.5
20260509091549 47 0 0.0 0.0 0.00 0.01 0.00 89 1012.7
20260509091048 48 0 0.0 0.0 0.00 0.01 0.00 90 1012.9
20260509090547 48 0 0.0 0.0 0.00 0.01 0.00 90 1012.9
20260509090057 48 0 0.0 0.0 0.00 0.01 0.00 89 1013.0
20260509085546 48 0 0.0 0.0 0.00 0.01 0.00 89 1013.0
20260509085045 48 0 0.0 0.0 0.00 0.01 0.00 89 1013.1
20260509084555 48 0 0.0 0.0 0.00 0.01 0.00 89 1013.1
20260509084047 48 0 0.0 0.0 0.00 0.01 0.00 89 1013.2
20260509083548 48 0 0.0 0.0 0.00 0.01 0.00 89 1013.1
20260509083054 48 0 0.0 0.0 0.00 0.01 0.00 88 1013.1
20260509082546 48 0 0.0 0.0 0.00 0.01 0.00 88 1013.0
20260509082047 48 0 0.0 0.0 0.00 0.01 0.00 88 1013.2
20260509081559 48 0 0.0 0.0 0.00 0.01 0.00 88 1013.2
20260509081047 48 0 0.0 0.0 0.00 0.01 0.00 87 1013.1
20260509080547 49 0 0.0 0.0 0.00 0.01 0.00 87 1013.1
20260509080054 49 0 0.0 0.0 0.00 0.01 0.00 87 1013.1
20260509075545 49 0 0.0 0.0 0.00 0.01 0.00 86 1013.2
20260509075048 49 0 0.0 0.0 0.00 0.01 0.00 86 1013.3
20260509074603 49 0 0.0 0.0 0.00 0.01 0.00 86 1013.2
20260509074046 49 0 0.0 0.0 0.00 0.01 0.00 86 1013.3
20260509073546 49 0 0.0 0.0 0.00 0.01 0.00 87 1013.3
20260509073059 49 0 0.0 0.0 0.00 0.01 0.00 87 1013.3
20260509072545 49 0 0.0 0.0 0.00 0.01 0.00 88 1013.4
20260509072047 49 0 0.0 0.0 0.00 0.01 0.00 87 1013.5
20260509071555 49 0 0.0 0.0 0.00 0.01 0.00 87 1013.5
20260509071045 49 0 0.0 0.0 0.00 0.01 0.00 87 1013.4
20260509070550 49 0 0.0 0.0 0.00 0.01 0.00 88 1013.4
20260509070105 49 0 0.0 0.0 0.00 0.01 0.00 88 1013.5
20260509065548 49 0 0.0 0.0 0.00 0.01 0.00 87 1013.6
20260509065048 49 0 0.0 0.0 0.00 0.01 0.00 87 1013.6
20260509064549 49 0 0.0 0.0 0.00 0.01 0.00 87 1013.6
20260509064050 49 0 0.0 0.0 0.00 0.01 0.00 86 1013.6
20260509063545 49 0 0.0 0.0 0.00 0.01 0.00 86 1013.6
20260509063107 49 0 0.0 0.0 0.00 0.01 0.00 85 1013.7
20260509062547 50 0 0.0 0.0 0.00 0.01 0.00 85 1013.7
20260509062044 50 0 0.0 0.0 0.00 0.01 0.00 85 1013.8
20260509061615 50 0 0.0 0.0 0.00 0.01 0.00 85 1013.9
20260509061048 50 0 0.0 0.0 0.00 0.01 0.00 85 1014.0
20260509060548 50 0 0.0 0.0 0.00 0.01 0.00 84 1014.2
20260509060105 51 0 0.0 0.0 0.00 0.01 0.00 84 1014.1
20260509055545 51 0 0.0 0.0 0.00 0.01 0.00 84 1014.2
20260509055046 51 0 0.0 0.0 0.00 0.01 0.00 83 1014.3
20260509054548 51 0 0.0 0.0 0.00 0.01 0.00 83 1014.3
20260509054048 51 0 0.0 0.0 0.00 0.01 0.00 82 1014.3
20260509053547 51 0 0.0 0.0 0.00 0.01 0.00 82 1014.3
20260509053050 51 0 0.0 0.0 0.00 0.01 0.00 82 1014.4
20260509052548 51 0 0.0 0.0 0.00 0.01 0.00 83 1014.5
20260509052044 51 0 0.0 0.0 0.00 0.01 0.00 83 1014.6
20260509051553 51 0 0.0 0.0 0.00 0.01 0.00 82 1014.9
20260509051045 51 0 0.0 0.0 0.00 0.01 0.00 82 1014.9
20260509050544 51 0 0.0 0.0 0.00 0.01 0.00 82 1014.9
20260509050051 51 0 0.0 1.0 0.00 0.01 0.00 82 1014.8
20260509045545 51 0 0.0 1.0 0.00 0.01 0.00 81 1014.9
20260509045047 51 0 0.0 1.0 0.00 0.01 0.00 83 1015.0
20260509044551 50 0 0.0 0.0 0.00 0.01 0.00 83 1015.0
20260509044049 50 0 0.0 0.0 0.00 0.01 0.00 82 1015.1
20260509043547 51 0 0.0 0.0 0.00 0.01 0.00 82 1015.0
20260509043052 51 0 0.0 0.0 0.00 0.01 0.00 82 1015.0
20260509042547 51 0 0.0 1.0 0.00 0.01 0.00 82 1015.0
20260509042046 51 0 0.0 1.0 0.00 0.01 0.00 81 1014.9
20260509041553 51 0 0.0 0.0 0.00 0.01 0.00 82 1014.8
20260509041046 51 0 0.0 0.0 0.00 0.01 0.00 82 1015.0
20260509040549 51 0 0.0 0.0 0.00 0.01 0.00 80 1014.9
20260509040052 51 0 0.0 0.0 0.00 0.01 0.00 79 1014.9
20260509035544 51 0 0.0 0.0 0.00 0.01 0.01 79 1015.0
20260509035047 51 0 0.0 0.0 0.00 0.01 0.01 79 1014.9
20260509034555 52 0 0.0 0.0 0.00 0.01 0.01 79 1015.0
20260509034046 52 0 0.0 0.0 0.00 0.01 0.01 80 1015.0
20260509033546 52 0 0.0 0.0 0.00 0.01 0.01 80 1014.9
20260509033056 52 0 0.0 0.0 0.00 0.01 0.01 80 1015.0
20260509032545 52 0 0.0 0.0 0.00 0.01 0.01 79 1014.8
20260509032047 52 0 0.0 0.0 0.00 0.01 0.01 80 1014.9
20260509031556 52 0 0.0 0.0 0.00 0.01 0.01 80 1014.7
20260509031045 52 0 0.0 0.0 0.00 0.01 0.01 78 1015.0
20260509030545 52 0 0.0 0.0 0.00 0.01 0.01 78 1015.0
20260509030056 52 0 0.0 0.0 0.00 0.01 0.01 78 1015.0
20260509025544 52 0 0.0 0.0 0.00 0.01 0.01 77 1015.1
20260509025047 52 0 0.0 0.0 0.00 0.01 0.01 78 1015.2
20260509024552 53 0 0.0 0.0 0.00 0.01 0.01 79 1015.2
20260509024045 53 0 0.0 0.0 0.00 0.01 0.01 78 1015.2
20260509023544 53 0 0.0 0.0 0.00 0.01 0.01 76 1015.2
20260509023100 53 0 0.0 0.0 0.00 0.01 0.01 77 1015.3
20260509022545 53 0 0.0 0.0 0.00 0.01 0.01 77 1015.3
20260509022047 53 0 0.0 0.0 0.00 0.01 0.01 75 1015.3
20260509021555 53 0 0.0 0.0 0.00 0.01 0.01 73 1015.3
20260509021046 53 0 0.0 0.0 0.00 0.01 0.01 71 1015.3
20260509020545 53 0 0.0 0.0 0.00 0.01 0.01 71 1015.4
20260509020057 53 0 0.0 0.0 0.00 0.01 0.01 73 1015.3
20260509015546 54 0 0.0 0.0 0.00 0.01 0.01 74 1015.3
20260509015047 54 0 0.0 0.0 0.00 0.01 0.01 76 1015.2
20260509014554 54 0 0.0 0.0 0.00 0.01 0.01 75 1015.2
20260509014049 54 0 0.0 0.0 0.00 0.01 0.01 75 1015.3
20260509013548 54 0 0.0 0.0 0.00 0.01 0.01 74 1015.2
20260509013055 54 0 0.0 0.0 0.00 0.01 0.01 72 1015.2
20260509012548 54 0 0.0 0.0 0.00 0.01 0.01 74 1015.2
20260509012048 54 0 0.0 0.0 0.00 0.01 0.01 73 1015.1
20260509011556 54 0 0.0 0.0 0.00 0.01 0.01 71 1015.0
20260509011045 54 0 0.0 0.0 0.00 0.01 0.01 72 1015.0
20260509010545 54 0 0.0 0.0 0.00 0.01 0.01 74 1014.9
20260509010059 54 0 0.0 0.0 0.00 0.01 0.01 73 1014.9
20260509005546 54 0 0.0 0.0 0.00 0.01 0.01 71 1014.8
20260509005045 55 0 0.0 0.0 0.00 0.01 0.01 70 1014.9
20260509004602 55 0 0.0 0.0 0.00 0.01 0.01 69 1014.7
20260509004044 56 0 0.0 0.0 0.00 0.01 0.01 68 1014.9
20260509003545 56 0 0.0 0.0 0.00 0.01 0.01 65 1014.7
20260509003049 57 0 0.0 0.0 0.00 0.01 0.01 66 1014.7
20260509002546 57 0 0.0 0.0 0.00 0.01 0.01 64 1014.7
20260509002051 58 0 0.0 0.0 0.00 0.01 0.01 63 1014.6
20260509001551 58 0 0.0 0.0 0.00 0.01 0.01 64 1014.4
20260509001045 59 0 0.0 0.0 0.00 0.01 0.01 63 1014.4
20260509000547 59 0 0.0 0.0 0.00 0.01 0.01 61 1014.4
20260509000051 60 0 0.0 0.0 0.00 0.01 0.01 59 1014.4
20260508235547 60 0 0.0 0.0 0.00 0.01 0.01 60 1014.3
20260508235048 61 0 0.0 0.0 0.00 0.01 0.01 57 1014.4
20260508234554 62 0 0.0 0.0 0.00 0.01 0.01 58 1014.5
20260508234047 62 0 0.0 0.0 0.00 0.01 0.01 54 1014.3
20260508233546 63 0 0.0 0.0 0.00 0.01 0.01 53 1014.5
20260508233055 63 0 0.0 0.0 0.00 0.01 0.01 56 1014.5
20260508232546 64 0 0.0 0.0 0.00 0.01 0.01 49 1014.5
20260508232047 65 0 0.0 0.0 0.00 0.01 0.01 47 1014.6
20260508231550 65 0 0.0 1.0 0.00 0.01 0.01 45 1014.6
20260508231046 66 129 0.0 4.0 0.00 0.01 0.01 46 1014.5
20260508230547 66 0 0.0 4.0 0.00 0.01 0.01 40 1014.6
20260508230049 66 254 1.0 4.0 0.00 0.01 0.01 40 1014.4
20260508225549 67 123 0.0 3.0 0.00 0.01 0.01 37 1014.6
20260508225045 68 113 0.0 4.0 0.00 0.01 0.01 37 1014.5
20260508224548 69 0 0.0 4.0 0.00 0.01 0.01 34 1014.5
20260508224047 69 95 2.0 4.0 0.00 0.01 0.01 34 1014.4
20260508223548 69 111 1.0 4.0 0.00 0.01 0.01 33 1014.4
20260508223051 68 0 0.0 6.0 0.00 0.01 0.01 34 1014.5
20260508222547 68 84 1.0 6.0 0.00 0.01 0.01 34 1014.5
20260508222046 68 0 0.0 3.0 0.00 0.01 0.01 34 1014.6
20260508221553 68 0 1.0 3.0 0.00 0.01 0.01 33 1014.5
20260508221046 69 105 1.0 6.0 0.00 0.01 0.01 32 1014.3
20260508220547 68 51 1.0 6.0 0.00 0.01 0.01 32 1014.3
20260508220051 68 292 2.0 6.0 0.00 0.01 0.01 32 1014.1
20260508215547 69 84 2.0 7.0 0.00 0.01 0.01 37 1014.2
20260508215047 69 103 2.0 7.0 0.00 0.01 0.01 35 1014.2
20260508214551 70 48 2.0 8.0 0.00 0.01 0.01 34 1014.4
20260508214046 69 38 3.0 8.0 0.00 0.01 0.01 35 1014.4